Tracking 19720 objects as of 26-Jun-2019
HD Live streaming from Space Station
objects crossing your sky now

COSMOS 1382 DEB

Track COSMOS 1382 DEB now!


NORAD ID: 27903
Int'l Code: 1982-064E
Perigee: 4,003.8 km
Apogee: 37,179.3 km
Inclination: 68.6 °
Period: 734.3 minutes
Semi major axis: 26962 km
RCS: 0.3202 m2 (medium)
Launch date: June 25, 1982
Source: Commonwealth of Independent States (former USSR) (CIS)
Launch site: PLESETSK MISSILE AND SPACE COMPLEX (PKMTR)

Note: This is SATELLITE DEBRIS
aabbcc
Your satellite tracking list
Your tracking list is empty




NASA's NSSDC Master Catalog

Two Line Element Set (TLE):
1 27903U 82064E   19176.36983370  .00000059  00000-0  00000+0 0  9997
2 27903  68.5780  80.2831 6152148  39.0406 352.2180  1.96092877120900
Source of the keplerian elements: AFSPC